Tracking 28052 objects as of 22-Sep-2023
HD Live streaming from Space Station
objects crossing your sky now

STARLINK-4017

Track STARLINK-4017 now!
10-day predictions
STARLINK-4017 is classified as:


NORAD ID: 52682
Int'l Code: 2022-053AC
Perigee: 545.8 km
Apogee: 547.9 km
Inclination: 53.2 °
Period: 95.4 minutes
Semi major axis: 6917 km
RCS: Unknown
Launch date: May 18, 2022
Source: United States (US)
Launch site: AIR FORCE EASTERN TEST RANGE (AFETR)
Your satellite tracking list
Your tracking list is empty




NASA's NSSDC Master Catalog

Two Line Element Set (TLE):
1 52682U 22053AC  23264.28717777 -.00001256  00000-0 -60815-4 0  9998
2 52682  53.2170 226.1856 0001498  93.6259 266.4905 15.08840009 75222
Source of the keplerian elements: AFSPC